Location: Waco, TX
(31.5480°N, 97.1670°W)
Time: 03:00:54
(UTC-05:00)

ISS - Pass Details

Date: 18 September 2017
Orbit: 401 x 407 km, 51.6° (Epoch: 22 September)

Event Time Altitude Azimuth Distance (km) Brightness Sun altitude
Rises 00:08:06 0° 256° (WSW) 2,312 - -52.2°
Reaches altitude 10° 00:10:33 10° 274° (W) 1,456 - -52.5°
Maximum altitude 00:13:02 20° 323° (NW) 1,010 - -52.8°
Drops below altitude 10° 00:15:32 10° 13° (NNE) 1,463 - -53.0°
Sets 00:18:00 0° 31° (NNE) 2,327 - -53.3°
